CST,Max TemperatureF,Mean TemperatureF,Min TemperatureF,Max Dew PointF,MeanDew PointF,Min DewpointF,Max Humidity, Mean Humidity, Min Humidity, Max Sea Level PressureIn, Mean Sea Level PressureIn, Min Sea Level PressureIn, Max VisibilityMiles, Mean VisibilityMiles, Min VisibilityMiles, Max Wind SpeedMPH, Mean Wind SpeedMPH, Max Gust SpeedMPH,PrecipitationIn, CloudCover, Events, WindDirDegrees
2013-2-1,33,27,21,25,15,9,75,60,38,30.54,30.40,30.31,10,10,8,20,9,25,0.00,0,,11
2013-2-2,48,37,26,37,27,18,100,78,54,30.32,30.22,30.16,10,9,5,12,3,,0.00,2,,201
2013-2-3,51,42,32,36,31,27,100,75,43,30.19,30.16,30.12,10,10,6,14,6,25,0.00,0,,257
2013-2-4,55,44,33,46,37,28,100,83,41,30.12,30.01,29.92,10,9,4,14,3,18,0.01,5,,185
2013-2-5,62,50,39,52,44,39,100,92,52,30.11,30.00,29.93,10,9,1,7,3,,0.00,3,,228
2013-2-6,59,47,35,45,40,36,100,82,55,30.22,30.11,30.06,10,7,0,13,3,,0.00,2,,62
2013-2-7,66,56,46,57,47,37,100,77,58,30.06,29.97,29.89,10,9,2,10,2,,0.14,6,,145
2013-2-8,55,44,32,55,42,32,100,96,81,30.32,30.14,29.91,10,6,2,20,8,26,0.36,6,,11
2013-2-9,48,39,30,39,34,30,100,82,62,30.33,30.21,30.06,10,9,7,10,4,,0.00,3,,87
2013-2-10,57,52,48,57,47,36,100,81,54,30.06,29.94,29.79,10,9,2,16,11,23,0.00,6,Rain-Thunderstorm,172
2013-2-11,55,48,42,55,38,30,100,70,38,30.21,30.10,29.97,10,10,5,14,5,18,0.00,2,,287
2013-2-12,48,44,39,43,38,32,100,82,57,30.17,30.01,29.80,10,9,3,12,2,,0.00,4,Rain,64
2013-2-13,42,38,33,41,38,34,100,100,87,30.04,29.91,29.78,10,5,1,13,5,20,0.04,5,Rain,302
2013-2-14,59,46,32,45,35,32,100,86,39,30.08,30.04,30.01,10,8,4,10,8,,0.00,0,,202
2013-2-15,51,42,33,41,35,28,100,85,41,30.21,30.15,30.06,10,10,8,14,5,21,0.00,2,,329
2013-2-16,35,30,26,32,23,19,93,71,52,30.27,30.24,30.20,10,10,9,14,4,21,0.00,4,,341
2013-2-17,53,40,28,32,28,23,93,67,38,30.28,30.18,30.09,10,10,8,15,6,20,0.00,4,,173
2013-2-18,55,48,41,52,42,32,100,83,57,30.11,30.00,29.80,10,9,1,23,14,34,0.47,4,Rain-Thunderstorm,191
2013-2-19,46,40,33,43,32,23,100,77,46,30.28,30.16,29.96,10,10,8,18,11,25,0.00,1,,309
2013-2-20,33,32,30,28,23,18,87,69,52,30.35,30.26,30.20,10,10,5,12,6,,0.00,4,Rain,34
2013-2-21,44,38,32,45,34,25,100,87,53,30.19,29.99,29.76,10,8,3,15,7,21,0.02,7,Rain-Thunderstorm,82
2013-2-22,46,40,35,43,38,36,100,98,76,30.09,30.01,29.89,10,6,0,10,4,,0.01,6,Fog,286
2013-2-23,48,39,30,36,32,30,100,89,50,30.07,30.03,29.97,10,10,8,12,7,,0.00,1,,6
2013-2-24,57,44,30,32,32,30,100,75,38,30.11,30.01,29.92,10,10,7,9,2,,0.00,0,,67
2013-2-25,55,47,39,55,40,28,100,74,47,29.92,29.68,29.33,10,8,2,24,10,33,0.40,4,Rain,97
2013-2-26,51,45,39,52,42,34,100,93,76,29.83,29.55,29.36,10,10,5,24,13,31,0.01,7,,226
2013-2-27,44,40,37,37,34,30,87,81,70,29.98,29.91,29.83,10,9,7,17,10,22,0.00,8,,272
2013-2-28,39,36,32,32,31,28,100,83,65,30.11,30.05,29.99,10,9,6,15,10,21,0.00,4,,310